Regional Weather Roundup
Issued by NWS

Home | Current Version | Previous Version | Graphics & Text | Print | Product List | Glossary On
Versions: 1 2 3 4 5 6 7 8 9 10 11 12 13 14 15 16 17 18 19 20 21 22 23 24 25 26 27 28 29 30 31 32 33 34 35 36 37 38 39 40 41 42 43 44 45 46 47 48 49 50
244
ASUS43 KFSD 231202
RWRSD

WEATHER ROUNDUP FOR SOUTH DAKOTA
NATIONAL WEATHER SERVICE SIOUX FALLS SD
700 AM CDT SUN APR 23 2017

NOTE: "FAIR" INDICATES FEW OR NO CLOUDS BELOW 12,000 FEET WITH NO
SIGNIFICANT WEATHER AND/OR OBSTRUCTIONS TO VISIBILITY.


SDZ001>005-009-010-012>017-231300-
NORTHWEST AND NORTH CENTRAL SOUTH DAKOTA

CITY           SKY/WX    TMP DP  RH WIND       PRES   REMARKS
BUFFALO          N/A     39  37  92 E21       29.81F
FAITH            N/A     37  37 100 NE10      29.88F
MOBRIDGE       CLOUDY    35  30  82 E17G26    29.97R WCI  25
$$

SDZ012>016-024>037-041>051-057-063-072>074-231300-
SOUTHWEST AND SOUTH CENTRAL SOUTH DAKOTA

CITY           SKY/WX    TMP DP  RH WIND       PRES   REMARKS
RAPID CTY ARPT CLOUDY    43  33  68 SE9       29.86F
PIERRE         CLOUDY    46  32  58 S7        29.94F
CUSTER         CLOUDY    36  28  73 CALM      29.91F
ELLSWORTH AFB  CLOUDY    47  33  59 S14       29.85  HAZE
PHILIP         PTCLDY    45  34  65 SE3       29.91F
PINE RIDGE     CLOUDY    44  33  65 S16       29.93F
SPEARFISH      FAIR      54  28  37 SW16      29.84F
WINNER         FAIR      45  32  60 S15       30.01F
$$

SDZ004>011-016>023-039-040-231300-
NORTHEAST SOUTH DAKOTA

CITY           SKY/WX    TMP DP  RH WIND       PRES   REMARKS
ABERDEEN       CLOUDY    35  32  88 NE17      30.06F WCI  25
WATERTOWN      CLEAR     33  31  92 NE5       30.05S WCI  29
BROOKINGS      CLEAR     44  34  67 S8        30.06F
SISSETON         N/A     38  37  97 NE10      30.08F
$$

SDZ017-020-022-023-036>040-048>070-231300-
SOUTHEAST SOUTH DAKOTA

CITY           SKY/WX    TMP DP  RH WIND       PRES   REMARKS
SIOUX FALLS    PTCLDY    47  35  63 SW7       30.08S
HURON          CLEAR     38  35  89 SE5       30.03R
CHAMBERLAIN    CLEAR     47  36  63 S15       30.01S
MITCHELL       CLEAR     48  35  60 S12       30.04F
YANKTON        CLEAR     46  30  53 S7        30.09S
$$

ABBREVIATIONS USED IN REMARKS
   TC - TEMPERATURE IN CELSIUS
  WCI - WIND CHILL INDEX
   HX - HEAT INDEX
  VSB - VISIBILITY





USA.gov is the U.S. government's official web portal to all federal, state and local government web resources and services.